Sturgeon Bay, WI

3:44 AM CST on February 27, 2017 (GMT -0600)
Door County Cherryland

Weather History for KSUE - June, 2014

Change the Weather History Date:

Wednesday, June 4, 2014

  Actual Average Record
Temperature  
Mean Temperature 60 °F -  
Max Temperature 69 °F 72 °F 88 °F (1948)
Min Temperature 51 °F 47 °F 32 °F (1982)
Degree Days  
Heating Degree Days 5    
Growing Degree Days 10 (Base 50)    
Moisture  
Dew Point 47 °F    
Average Humidity 62    
Maximum Humidity 82    
Minimum Humidity 46    
Precipitation  
Precipitation 0.00 in - - ()
Sea Level Pressure  
Sea Level Pressure 29.92 in    
Wind  
Wind Speed 6 mph (SE)    
Max Wind Speed 9 mph    
Max Gust Speed -    
Visibility 10 miles    
Events      
Averages and records for this station are not official NWS values.
T = Trace of Precipitation, MM = Missing Value Source: NWS Daily Summary

Daily Weather History Graph

Daily Weather History Graph

Search for Another Location

Airport or City:

Trip Planner

Search our weather history database for the weather conditions in past years. The results will help you decide how hot, cold, wet, or windy it might be!

Date:

Astronomy

Jun. 04, 2014 Rise Set
Actual Time 5:05 AM CDT 8:31 PM CDT
Civil Twilight 4:28 AM CDT 9:07 PM CDT
Nautical Twilight 3:41 AM CDT 9:55 PM CDT
Astronomical Twilight 2:40 AM CDT 10:56 PM CDT
Moon 11:36 AM CDT (6/4) 12:18 AM CDT (6/4)
Length of Visible Light 16h 38m
Length of Day
15h 25m
Waxing Crescent, 39% of the Moon is Illuminated
Jun 4
Waxing Crescent
Jun 5
First Quarter
Jun 12
Full
Jun 19
Last Quarter
Jun 27
New

Hourly Weather History & Observations

Time (CDT) Temp. Dew Point Humidity Pressure Visibility Wind Dir Wind Speed Gust Speed Precip Events Conditions
12:15 AM 57.2 °F 46.4 °F 67% 29.92 in 10.0 mi ESE 6.9 mph - N/A   Clear
12:35 AM 55.4 °F 46.4 °F 72% 29.93 in 10.0 mi ESE 8.1 mph - N/A   Clear
12:55 AM 55.4 °F 46.4 °F 72% 29.92 in 10.0 mi ESE 9.2 mph - N/A   Clear
1:15 AM 53.6 °F 44.6 °F 72% 29.93 in 10.0 mi ESE 8.1 mph - N/A   Scattered Clouds
1:35 AM 53.6 °F 44.6 °F 72% 29.92 in 10.0 mi SE 9.2 mph - N/A   Mostly Cloudy
1:55 AM 53.6 °F 44.6 °F 72% 29.91 in 10.0 mi East 6.9 mph - N/A   Partly Cloudy
2:15 AM 53.6 °F 44.6 °F 72% 29.91 in 10.0 mi SE 8.1 mph - N/A   Clear
2:35 AM 53.6 °F 44.6 °F 72% 29.90 in 10.0 mi SE 8.1 mph - N/A   Clear
2:55 AM 53.6 °F 44.6 °F 72% 29.91 in 10.0 mi SE 9.2 mph - N/A   Clear
3:15 AM 53.6 °F 44.6 °F 72% 29.91 in 10.0 mi SE 5.8 mph - N/A   Partly Cloudy
3:35 AM 53.6 °F 44.6 °F 72% 29.91 in 10.0 mi SE 5.8 mph - N/A   Clear
3:55 AM 53.6 °F 42.8 °F 67% 29.91 in 10.0 mi SE 4.6 mph - N/A   Clear
4:15 AM 53.6 °F 44.6 °F 72% 29.91 in 10.0 mi ESE 5.8 mph - N/A   Mostly Cloudy
4:35 AM 51.8 °F 44.6 °F 76% 29.91 in 10.0 mi East 5.8 mph - N/A   Scattered Clouds
4:55 AM 51.8 °F 44.6 °F 76% 29.91 in 10.0 mi ESE 5.8 mph - N/A   Clear
5:15 AM 51.8 °F 44.6 °F 76% 29.91 in 10.0 mi SE 4.6 mph - N/A   Partly Cloudy
5:35 AM 51.8 °F 44.6 °F 76% 29.90 in 10.0 mi ESE 6.9 mph - N/A   Partly Cloudy
5:55 AM 51.8 °F 44.6 °F 76% 29.91 in 10.0 mi SE 6.9 mph - N/A   Clear
6:15 AM 53.6 °F 44.6 °F 72% 29.91 in 10.0 mi SE 6.9 mph - N/A   Mostly Cloudy
6:35 AM 53.6 °F 44.6 °F 72% 29.91 in 10.0 mi SE 6.9 mph - N/A   Overcast
6:55 AM 55.4 °F 46.4 °F 72% 29.90 in 10.0 mi SSE 5.8 mph - N/A   Overcast
7:15 AM 57.2 °F 46.4 °F 67% 29.90 in 10.0 mi SE 5.8 mph - N/A   Mostly Cloudy
7:35 AM 57.2 °F 48.2 °F 72% 29.90 in 10.0 mi SSE 5.8 mph - N/A   Scattered Clouds
7:55 AM 59.0 °F 48.2 °F 67% 29.91 in 10.0 mi SSE 9.2 mph - N/A   Clear
8:15 AM 62.6 °F 48.2 °F 59% 29.90 in 10.0 mi ESE 5.8 mph - N/A   Clear
8:35 AM 64.4 °F 50.0 °F 59% 29.91 in 10.0 mi SSE 6.9 mph - N/A   Clear
8:55 AM 64.4 °F 50.0 °F 59% 29.92 in 10.0 mi SE 8.1 mph - N/A   Clear
9:15 AM 64.4 °F 46.4 °F 52% 29.92 in 10.0 mi ESE 5.8 mph - N/A   Clear
9:35 AM 64.4 °F 50.0 °F 59% 29.92 in 10.0 mi South 9.2 mph - N/A   Clear
9:55 AM 64.4 °F 48.2 °F 56% 29.93 in 10.0 mi ESE 3.5 mph - N/A   Clear
10:15 AM 66.2 °F 50.0 °F 56% 29.94 in 10.0 mi East 5.8 mph - N/A   Clear
10:35 AM 66.2 °F 48.2 °F 52% 29.94 in 10.0 mi East 6.9 mph - N/A   Clear
10:55 AM 66.2 °F 50.0 °F 56% 29.94 in 10.0 mi ESE 6.9 mph - N/A   Clear
11:15 AM 66.2 °F 51.8 °F 60% 29.94 in 10.0 mi SSE 8.1 mph - N/A   Clear
11:35 AM 64.4 °F 48.2 °F 56% 29.94 in 10.0 mi SSE 8.1 mph - N/A   Mostly Cloudy
11:55 AM 66.2 °F 48.2 °F 52% 29.93 in 10.0 mi SE 6.9 mph - N/A   Mostly Cloudy
12:15 PM 66.2 °F 48.2 °F 52% 29.93 in 10.0 mi Calm Calm - N/A   Clear
12:35 PM 66.2 °F 48.2 °F 52% 29.93 in 10.0 mi ENE 5.8 mph - N/A   Clear
12:55 PM 66.2 °F 48.2 °F 52% 29.93 in 10.0 mi SE 6.9 mph - N/A   Clear
1:15 PM 66.2 °F 48.2 °F 52% 29.93 in 10.0 mi South 3.5 mph - N/A   Clear
1:35 PM 66.2 °F 50.0 °F 56% 29.93 in 10.0 mi ESE 4.6 mph - N/A   Clear
1:55 PM 68.0 °F 50.0 °F 52% 29.93 in 10.0 mi East 6.9 mph - N/A   Clear
2:15 PM 66.2 °F 48.2 °F 52% 29.93 in 10.0 mi SE 4.6 mph - N/A   Clear
2:35 PM 68.0 °F 50.0 °F 52% 29.93 in 10.0 mi South 3.5 mph - N/A   Clear
2:55 PM 68.0 °F 48.2 °F 49% 29.92 in 10.0 mi East 5.8 mph - N/A   Clear
3:15 PM 68.0 °F 48.2 °F 49% 29.92 in 10.0 mi SSE 4.6 mph - N/A   Clear
3:35 PM 69.8 °F 48.2 °F 46% 29.91 in 10.0 mi ESE 3.5 mph - N/A   Clear
3:55 PM 69.8 °F 48.2 °F 46% 29.91 in 10.0 mi East 6.9 mph - N/A   Clear
4:15 PM 68.0 °F 48.2 °F 49% 29.92 in 10.0 mi East 6.9 mph - N/A   Clear
4:35 PM 68.0 °F 48.2 °F 49% 29.92 in 10.0 mi SE 6.9 mph - N/A   Clear
4:55 PM 68.0 °F 48.2 °F 49% 29.92 in 10.0 mi SSE 8.1 mph - N/A   Clear
5:15 PM 68.0 °F 48.2 °F 49% 29.92 in 9.0 mi SE 4.6 mph - N/A   Clear
5:35 PM 68.0 °F 48.2 °F 49% 29.92 in 10.0 mi South 3.5 mph - N/A   Clear
5:55 PM 69.8 °F 48.2 °F 46% 29.92 in 5.0 mi ESE 4.6 mph - N/A   Clear
6:15 PM 68.0 °F 46.4 °F 46% 29.92 in 10.0 mi East 5.8 mph - N/A   Clear
6:35 PM 68.0 °F 48.2 °F 49% 29.92 in 10.0 mi East 5.8 mph - N/A   Clear
6:55 PM 66.2 °F 46.4 °F 49% 29.92 in 10.0 mi SE 5.8 mph - N/A   Clear
7:15 PM 64.4 °F 46.4 °F 52% 29.93 in 10.0 mi SE 4.6 mph - N/A   Clear
7:35 PM 64.4 °F 46.4 °F 52% 29.93 in 10.0 mi SE 3.5 mph - N/A   Clear
7:55 PM 64.4 °F 46.4 °F 52% 29.93 in 10.0 mi SE 3.5 mph - N/A   Clear
8:15 PM 62.6 °F 46.4 °F 55% 29.93 in 10.0 mi Calm Calm - N/A   Clear
8:35 PM 60.8 °F 46.4 °F 59% 29.92 in 10.0 mi Calm Calm - N/A   Clear
8:55 PM 57.2 °F 46.4 °F 67% 29.92 in 10.0 mi Calm Calm - N/A   Clear
9:15 PM 57.2 °F 44.6 °F 63% 29.93 in 10.0 mi Calm Calm - N/A   Clear
9:35 PM 57.2 °F 46.4 °F 67% 29.93 in 10.0 mi Calm Calm - N/A   Clear
10:15 PM 55.4 °F 46.4 °F 72% 29.93 in 10.0 mi Calm Calm - N/A   Clear
10:35 PM 53.6 °F 46.4 °F 77% 29.93 in 10.0 mi Calm Calm - N/A   Clear
10:55 PM 53.6 °F 46.4 °F 77% 29.94 in 10.0 mi Calm Calm - N/A   Clear
11:15 PM 53.6 °F 46.4 °F 77% 29.94 in 10.0 mi Calm Calm - N/A   Clear
11:35 PM 51.8 °F 46.4 °F 82% 29.95 in 10.0 mi Calm Calm - N/A   Clear
11:55 PM 51.8 °F 46.4 °F 82% 29.95 in 10.0 mi Calm Calm - N/A   Clear